Time,TemperatureF,DewpointF,PressureIn,WindDirection,WindDirectionDegrees,WindSpeedMPH,WindSpeedGustMPH,Humidity,HourlyPrecipIn,Conditions,Clouds,dailyrainin,SoftwareType,DateUTC
2013-06-16 00:01:00,59.9,54.7,29.93,West,272,0.0,0.0,83,0.00,RA,,0.00,WeatherDisplay:10.37,2013-06-16 04:01:00,
2013-06-16 00:02:00,59.8,54.6,29.92,West,272,0.0,0.0,83,0.00,RA,,0.00,WeatherDisplay:10.37,2013-06-16 04:02:00,
2013-06-16 00:03:00,59.8,54.6,29.92,West,272,0.0,0.0,83,0.00,RA,,0.00,WeatherDisplay:10.37,2013-06-16 04:03:00,
2013-06-16 00:08:00,59.8,54.6,29.93,West,272,0.0,0.0,83,0.00,RA,,0.00,WeatherDisplay:10.37,2013-06-16 04:08:00,
2013-06-16 00:13:00,59.6,54.4,29.93,West,272,0.0,0.0,83,0.00,CLR,,0.00,WeatherDisplay:10.37,2013-06-16 04:13:00,
2013-06-16 00:18:00,59.9,54.4,29.92,West,271,0.0,0.0,82,0.00,CLR,,0.00,WeatherDisplay:10.37,2013-06-16 04:18:00,
2013-06-16 00:23:00,59.8,54.6,29.93,West,271,0.0,0.0,83,0.00,CLR,,0.00,WeatherDisplay:10.37,2013-06-16 04:23:00,
2013-06-16 00:28:00,59.3,54.5,29.93,West,271,0.0,0.0,84,0.00,CLR,,0.00,WeatherDisplay:10.37,2013-06-16 04:28:00,
2013-06-16 00:33:00,59.0,54.8,29.93,West,271,0.0,0.0,86,0.00,CLR,,0.00,WeatherDisplay:10.37,2013-06-16 04:33:00,
2013-06-16 00:39:00,58.9,55.0,29.93,West,271,0.0,0.0,87,0.00,CLR,,0.00,WeatherDisplay:10.37,2013-06-16 04:39:00,
2013-06-16 00:44:00,59.0,55.1,29.93,West,271,0.0,0.0,87,0.00,CLR,,0.00,WeatherDisplay:10.37,2013-06-16 04:44:00,
2013-06-16 00:49:00,59.0,55.1,29.93,West,271,0.0,0.0,87,0.00,CLR,,0.00,WeatherDisplay:10.37,2013-06-16 04:49:00,
2013-06-16 00:54:00,58.7,55.2,29.93,West,271,0.0,0.0,88,0.00,CLR,,0.00,WeatherDisplay:10.37,2013-06-16 04:54:00,
2013-06-16 00:59:00,58.4,54.9,29.94,West,271,0.0,0.0,88,0.00,CLR,,0.00,WeatherDisplay:10.37,2013-06-16 04:59:00,
2013-06-16 01:04:00,58.3,54.8,29.94,West,271,0.0,0.0,88,0.00,CLR,,0.00,WeatherDisplay:10.37,2013-06-16 05:04:00,
2013-06-16 01:10:00,58.1,54.6,29.94,West,271,0.0,0.0,88,0.00,CLR,,0.00,WeatherDisplay:10.37,2013-06-16 05:10:00,
2013-06-16 01:15:00,58.0,54.5,29.93,West,271,0.0,0.0,88,0.00,CLR,,0.00,WeatherDisplay:10.37,2013-06-16 05:15:00,
2013-06-16 01:20:00,57.8,54.3,29.93,West,271,0.0,0.0,88,0.00,CLR,,0.00,WeatherDisplay:10.37,2013-06-16 05:20:00,
2013-06-16 01:25:00,57.8,54.0,29.93,West,271,0.0,0.0,87,0.00,CLR,,0.00,WeatherDisplay:10.37,2013-06-16 05:25:00,
2013-06-16 01:30:00,58.0,54.5,29.93,West,271,0.0,0.0,88,0.00,CLR,,0.00,WeatherDisplay:10.37,2013-06-16 05:30:00,
2013-06-16 01:35:00,58.0,54.5,29.93,West,271,0.0,0.0,88,0.00,CLR,,0.00,WeatherDisplay:10.37,2013-06-16 05:35:00,
2013-06-16 01:40:00,57.8,54.3,29.93,West,271,0.0,0.0,88,0.00,CLR,,0.00,WeatherDisplay:10.37,2013-06-16 05:40:00,
2013-06-16 01:45:00,57.8,54.3,29.93,West,271,0.0,0.0,88,0.00,CLR,,0.00,WeatherDisplay:10.37,2013-06-16 05:45:00,
2013-06-16 01:50:00,57.6,54.1,29.93,West,271,0.0,0.0,88,0.00,CLR,,0.00,WeatherDisplay:10.37,2013-06-16 05:50:00,
2013-06-16 01:55:00,57.5,54.0,29.93,West,271,0.0,0.0,88,0.00,CLR,,0.00,WeatherDisplay:10.37,2013-06-16 05:55:00,
2013-06-16 02:01:00,57.3,53.8,29.93,West,271,0.0,0.0,88,0.00,CLR,,0.00,WeatherDisplay:10.37,2013-06-16 06:01:00,
2013-06-16 02:06:00,57.2,53.7,29.93,West,271,0.0,0.0,88,0.00,CLR,,0.00,WeatherDisplay:10.37,2013-06-16 06:06:00,
2013-06-16 02:11:00,57.0,53.8,29.93,West,271,0.0,0.0,89,0.00,CLR,,0.00,WeatherDisplay:10.37,2013-06-16 06:11:00,
2013-06-16 02:16:00,56.9,53.7,29.93,West,271,0.0,0.0,89,0.00,CLR,,0.00,WeatherDisplay:10.37,2013-06-16 06:16:00,
2013-06-16 02:21:00,56.9,53.7,29.93,West,271,0.0,0.0,89,0.00,CLR,,0.00,WeatherDisplay:10.37,2013-06-16 06:21:00,
2013-06-16 02:26:00,56.7,53.5,29.93,West,271,0.0,0.0,89,0.00,CLR,,0.00,WeatherDisplay:10.37,2013-06-16 06:26:00,
2013-06-16 02:31:00,56.7,53.5,29.93,West,271,0.0,0.0,89,0.00,CLR,,0.00,WeatherDisplay:10.37,2013-06-16 06:31:00,
2013-06-16 02:37:00,56.6,53.7,29.93,West,274,0.0,0.0,90,0.00,CLR,,0.00,WeatherDisplay:10.37,2013-06-16 06:37:00,
2013-06-16 02:42:00,56.5,53.6,29.93,West,274,0.0,0.0,90,0.00,CLR,,0.00,WeatherDisplay:10.37,2013-06-16 06:42:00,
2013-06-16 02:47:00,56.3,53.4,29.93,West,274,0.0,0.0,90,0.00,CLR,,0.00,WeatherDisplay:10.37,2013-06-16 06:47:00,
2013-06-16 02:52:00,56.3,53.7,29.93,West,274,0.0,0.0,91,0.00,CLR,,0.00,WeatherDisplay:10.37,2013-06-16 06:52:00,
2013-06-16 02:57:00,56.2,53.6,29.93,West,274,0.0,0.0,91,0.00,CLR,,0.00,WeatherDisplay:10.37,2013-06-16 06:57:00,
2013-06-16 03:03:00,56.2,53.6,29.92,West,274,0.0,0.0,91,0.00,CLR,,0.00,WeatherDisplay:10.37,2013-06-16 07:03:00,
2013-06-16 03:08:00,55.9,53.3,29.92,West,274,0.0,0.0,91,0.00,CLR,,0.00,WeatherDisplay:10.37,2013-06-16 07:08:00,
2013-06-16 03:13:00,55.7,53.1,29.93,West,274,0.0,0.0,91,0.00,CLR,,0.00,WeatherDisplay:10.37,2013-06-16 07:13:00,
2013-06-16 03:18:00,55.7,53.4,29.93,West,274,0.0,0.0,92,0.00,CLR,,0.00,WeatherDisplay:10.37,2013-06-16 07:18:00,
2013-06-16 03:23:00,55.7,53.4,29.93,West,274,0.0,0.0,92,0.00,CLR,,0.00,WeatherDisplay:10.37,2013-06-16 07:23:00,
2013-06-16 03:28:00,55.9,53.6,29.92,West,272,0.0,0.0,92,0.00,CLR,,0.00,WeatherDisplay:10.37,2013-06-16 07:28:00,
2013-06-16 03:33:00,55.7,53.4,29.93,West,272,0.0,0.0,92,0.00,CLR,,0.00,WeatherDisplay:10.37,2013-06-16 07:33:00,
2013-06-16 03:38:00,55.7,53.7,29.93,West,274,0.0,0.0,93,0.00,CLR,,0.00,WeatherDisplay:10.37,2013-06-16 07:38:00,
2013-06-16 03:43:00,55.6,53.6,29.93,West,274,0.0,0.0,93,0.00,CLR,,0.00,WeatherDisplay:10.37,2013-06-16 07:43:00,
2013-06-16 03:48:00,55.3,53.3,29.93,West,274,0.0,0.0,93,0.00,CLR,,0.00,WeatherDisplay:10.37,2013-06-16 07:48:00,
2013-06-16 03:54:00,55.1,53.1,29.93,West,274,0.0,0.0,93,0.00,CLR,,0.00,WeatherDisplay:10.37,2013-06-16 07:54:00,
2013-06-16 03:59:00,55.0,53.0,29.92,West,274,0.0,0.0,93,0.00,CLR,,0.00,WeatherDisplay:10.37,2013-06-16 07:59:00,
2013-06-16 04:04:00,54.8,52.8,29.92,West,274,0.0,0.0,93,0.00,CLR,,0.00,WeatherDisplay:10.37,2013-06-16 08:04:00,
2013-06-16 04:09:00,54.8,52.8,29.92,West,274,0.0,0.0,93,0.00,CLR,,0.00,WeatherDisplay:10.37,2013-06-16 08:09:00,
2013-06-16 04:14:00,55.0,53.3,29.92,West,274,0.0,0.0,94,0.00,CLR,,0.00,WeatherDisplay:10.37,2013-06-16 08:14:00,
2013-06-16 04:20:00,55.0,53.3,29.92,West,274,0.0,0.0,94,0.00,CLR,,0.00,WeatherDisplay:10.37,2013-06-16 08:20:00,
2013-06-16 04:25:00,55.1,53.4,29.92,West,274,0.0,0.0,94,0.00,CLR,,0.00,WeatherDisplay:10.37,2013-06-16 08:25:00,
2013-06-16 04:30:00,55.0,53.3,29.92,West,274,0.0,0.0,94,0.00,CLR,,0.00,WeatherDisplay:10.37,2013-06-16 08:30:00,
2013-06-16 04:35:00,55.0,53.3,29.92,West,274,0.0,0.0,94,0.00,CLR,,0.00,WeatherDisplay:10.37,2013-06-16 08:35:00,
2013-06-16 04:40:00,55.1,53.4,29.92,West,274,0.0,0.0,94,0.00,CLR,,0.00,WeatherDisplay:10.37,2013-06-16 08:40:00,
2013-06-16 04:45:00,54.8,53.1,29.91,West,274,0.0,0.0,94,0.00,CLR,,0.00,WeatherDisplay:10.37,2013-06-16 08:45:00,
2013-06-16 04:50:00,54.8,53.1,29.91,West,274,0.0,0.0,94,0.00,CLR,,0.00,WeatherDisplay:10.37,2013-06-16 08:50:00,
2013-06-16 04:55:00,54.8,53.1,29.91,West,274,0.0,0.0,94,0.00,CLR,,0.00,WeatherDisplay:10.37,2013-06-16 08:55:00,
2013-06-16 05:00:00,54.8,53.1,29.91,West,274,0.0,0.0,94,0.00,CLR,,0.00,WeatherDisplay:10.37,2013-06-16 09:00:00,
2013-06-16 05:05:00,54.8,53.1,29.91,West,274,0.0,0.0,94,0.00,CLR,,0.00,WeatherDisplay:10.37,2013-06-16 09:05:00,
2013-06-16 05:10:00,54.7,53.0,29.91,West,274,0.0,0.0,94,0.00,CLR,,0.00,WeatherDisplay:10.37,2013-06-16 09:10:00,
2013-06-16 05:15:00,54.7,53.0,29.91,West,274,0.0,0.0,94,0.00,CLR,,0.00,WeatherDisplay:10.37,2013-06-16 09:15:00,
2013-06-16 05:21:00,54.7,53.0,29.91,West,274,0.0,0.0,94,0.00,CLR,,0.00,WeatherDisplay:10.37,2013-06-16 09:21:00,
2013-06-16 05:26:00,54.7,53.0,29.91,West,274,0.0,0.0,94,0.00,CLR,,0.00,WeatherDisplay:10.37,2013-06-16 09:26:00,
2013-06-16 05:31:00,54.5,52.8,29.91,West,274,0.0,0.0,94,0.00,CLR,,0.00,WeatherDisplay:10.37,2013-06-16 09:31:00,
2013-06-16 05:36:00,54.7,53.0,29.91,West,274,0.0,0.0,94,0.00,CLR,,0.00,WeatherDisplay:10.37,2013-06-16 09:36:00,
2013-06-16 05:41:00,54.7,53.0,29.91,West,274,0.0,0.0,94,0.00,CLR,,0.00,WeatherDisplay:10.37,2013-06-16 09:41:00,
2013-06-16 05:46:00,54.8,53.1,29.91,West,274,0.0,0.0,94,0.00,CLR,,0.00,WeatherDisplay:10.37,2013-06-16 09:46:00,
2013-06-16 05:51:00,54.8,53.1,29.91,West,274,0.0,0.0,94,0.00,CLR,,0.00,WeatherDisplay:10.37,2013-06-16 09:51:00,
2013-06-16 05:56:00,54.8,53.4,29.91,West,274,0.0,0.0,95,0.00,CLR,,0.00,WeatherDisplay:10.37,2013-06-16 09:56:00,
2013-06-16 06:01:00,55.0,53.3,29.91,West,274,0.0,0.0,94,0.00,CLR,,0.00,WeatherDisplay:10.37,2013-06-16 10:01:00,
2013-06-16 06:06:00,55.0,53.3,29.91,West,274,0.0,0.0,94,0.00,CLR,,0.00,WeatherDisplay:10.37,2013-06-16 10:06:00,
2013-06-16 06:11:00,55.1,53.4,29.91,West,274,0.0,0.0,94,0.00,CLR,,0.00,WeatherDisplay:10.37,2013-06-16 10:11:00,
2013-06-16 06:16:00,55.3,53.6,29.91,West,274,0.0,0.0,94,0.00,CLR,,0.00,WeatherDisplay:10.37,2013-06-16 10:16:00,
2013-06-16 06:22:00,55.4,53.7,29.91,West,274,0.0,0.0,94,0.00,CLR,,0.00,WeatherDisplay:10.37,2013-06-16 10:22:00,
2013-06-16 06:27:00,55.6,53.9,29.91,West,274,0.0,0.0,94,0.00,CLR,,0.00,WeatherDisplay:10.37,2013-06-16 10:27:00,
2013-06-16 06:32:00,55.7,54.0,29.91,West,274,0.0,0.0,94,0.00,CLR,,0.00,WeatherDisplay:10.37,2013-06-16 10:32:00,
2013-06-16 06:37:00,55.9,54.2,29.92,West,274,0.0,0.0,94,0.00,CLR,,0.00,WeatherDisplay:10.37,2013-06-16 10:37:00,
2013-06-16 06:42:00,55.9,54.2,29.92,West,274,0.0,0.0,94,0.00,CLR,,0.00,WeatherDisplay:10.37,2013-06-16 10:42:00,
2013-06-16 06:47:00,56.0,54.3,29.92,West,274,0.0,0.0,94,0.00,CLR,,0.00,WeatherDisplay:10.37,2013-06-16 10:47:00,
2013-06-16 06:52:00,56.2,54.5,29.92,West,274,0.0,0.0,94,0.00,CLR,,0.00,WeatherDisplay:10.37,2013-06-16 10:52:00,
2013-06-16 06:57:00,56.3,54.6,29.92,West,274,0.0,0.0,94,0.00,CLR,,0.00,WeatherDisplay:10.37,2013-06-16 10:57:00,
2013-06-16 07:03:00,56.5,54.8,29.92,West,274,0.0,0.0,94,0.00,CLR,,0.00,WeatherDisplay:10.37,2013-06-16 11:03:00,
2013-06-16 07:08:00,56.7,55.0,29.92,West,272,0.0,0.0,94,0.00,CLR,,0.00,WeatherDisplay:10.37,2013-06-16 11:08:00,
2013-06-16 07:13:00,56.3,54.6,29.92,West,272,0.0,0.0,94,0.00,CLR,,0.00,WeatherDisplay:10.37,2013-06-16 11:13:00,
2013-06-16 07:18:00,56.0,54.6,29.92,West,272,0.0,0.0,95,0.00,CLR,,0.00,WeatherDisplay:10.37,2013-06-16 11:18:00,
2013-06-16 07:24:00,56.2,54.8,29.92,West,272,0.0,0.0,95,0.00,CLR,,0.00,WeatherDisplay:10.37,2013-06-16 11:24:00,
2013-06-16 07:29:00,56.5,55.1,29.92,West,272,0.0,0.0,95,0.00,CLR,,0.00,WeatherDisplay:10.37,2013-06-16 11:29:00,
2013-06-16 07:34:00,56.7,55.3,29.91,West,272,0.0,0.0,95,0.00,CLR,,0.00,WeatherDisplay:10.37,2013-06-16 11:34:00,
2013-06-16 07:39:00,57.5,56.1,29.91,West,272,0.0,0.0,95,0.00,CLR,,0.00,WeatherDisplay:10.37,2013-06-16 11:39:00,
2013-06-16 07:44:00,57.5,55.8,29.91,West,272,0.0,0.0,94,0.00,CLR,,0.00,WeatherDisplay:10.37,2013-06-16 11:44:00,
2013-06-16 07:49:00,57.8,56.1,29.91,West,272,0.0,0.0,94,0.00,CLR,,0.00,WeatherDisplay:10.37,2013-06-16 11:49:00,
2013-06-16 07:54:00,58.1,56.4,29.91,West,272,0.0,0.0,94,0.00,CLR,,0.00,WeatherDisplay:10.37,2013-06-16 11:54:00,
2013-06-16 07:59:00,57.8,56.1,29.91,West,272,0.0,0.0,94,0.00,CLR,,0.00,WeatherDisplay:10.37,2013-06-16 11:59:00,
2013-06-16 08:04:00,57.6,55.9,29.91,WSW,256,0.0,0.0,94,0.00,CLR,,0.00,WeatherDisplay:10.37,2013-06-16 12:04:00,
2013-06-16 08:10:00,57.6,55.9,29.91,WSW,256,0.0,0.0,94,0.00,CLR,,0.00,WeatherDisplay:10.37,2013-06-16 12:10:00,
2013-06-16 08:15:00,57.8,56.1,29.91,WSW,256,0.0,0.0,94,0.00,CLR,,0.00,WeatherDisplay:10.37,2013-06-16 12:15:00,
2013-06-16 08:20:00,57.8,56.1,29.90,WSW,256,0.0,0.0,94,0.00,CLR,,0.00,WeatherDisplay:10.37,2013-06-16 12:20:00,
2013-06-16 08:25:00,58.1,56.4,29.90,WSW,256,0.0,0.0,94,0.00,CLR,,0.00,WeatherDisplay:10.37,2013-06-16 12:25:00,
2013-06-16 08:30:00,58.7,57.0,29.90,WSW,256,0.0,0.0,94,0.00,CLR,,0.00,WeatherDisplay:10.37,2013-06-16 12:30:00,
2013-06-16 08:35:00,59.3,57.3,29.90,WSW,256,0.0,0.0,93,0.00,CLR,,0.00,WeatherDisplay:10.37,2013-06-16 12:35:00,
2013-06-16 08:40:00,60.1,57.8,29.90,WSW,256,0.0,0.0,92,0.00,CLR,,0.00,WeatherDisplay:10.37,2013-06-16 12:40:00,
2013-06-16 08:45:00,60.9,58.6,29.89,WSW,256,0.0,0.0,92,0.00,CLR,,0.00,WeatherDisplay:10.37,2013-06-16 12:45:00,
2013-06-16 08:50:00,61.6,59.3,29.89,WSW,256,0.0,0.0,92,0.00,CLR,,0.00,WeatherDisplay:10.37,2013-06-16 12:50:00,
2013-06-16 08:55:00,62.1,59.1,29.88,WSW,258,0.0,0.0,90,0.00,CLR,,0.00,WeatherDisplay:10.37,2013-06-16 12:55:00,
2013-06-16 09:00:00,62.6,59.0,29.88,WSW,257,0.0,0.0,88,0.00,CLR,,0.00,WeatherDisplay:10.37,2013-06-16 13:00:00,
2013-06-16 09:05:00,63.2,58.9,29.88,WSW,257,0.0,0.0,86,0.00,CLR,,0.00,WeatherDisplay:10.37,2013-06-16 13:05:00,
2013-06-16 09:10:00,64.0,59.1,29.88,WSW,257,0.0,0.0,84,0.00,CLR,,0.00,WeatherDisplay:10.37,2013-06-16 13:10:00,
2013-06-16 09:16:00,64.3,58.7,29.88,WSW,258,0.0,0.0,82,0.00,CLR,,0.00,WeatherDisplay:10.37,2013-06-16 13:16:00,
2013-06-16 09:21:00,64.7,58.7,29.88,WSW,258,0.0,0.0,81,0.00,CLR,,0.00,WeatherDisplay:10.37,2013-06-16 13:21:00,
2013-06-16 09:26:00,65.2,58.9,29.88,West,260,0.0,0.0,80,0.00,CLR,,0.00,WeatherDisplay:10.37,2013-06-16 13:26:00,
2013-06-16 09:31:00,66.0,58.9,29.87,West,260,0.0,0.0,78,0.00,CLR,,0.00,WeatherDisplay:10.37,2013-06-16 13:31:00,
2013-06-16 09:36:00,66.3,58.1,29.87,SW,226,0.1,0.0,75,0.00,CLR,,0.00,WeatherDisplay:10.37,2013-06-16 13:36:00,
2013-06-16 09:42:00,67.1,58.5,29.88,SW,215,0.6,3.5,74,0.00,CLR,,0.00,WeatherDisplay:10.37,2013-06-16 13:42:00,
2013-06-16 09:47:00,67.8,58.8,29.87,SW,217,0.3,6.9,73,0.00,CLR,,0.00,WeatherDisplay:10.37,2013-06-16 13:47:00,
2013-06-16 09:52:00,67.9,56.9,29.87,WSW,237,1.6,5.8,68,0.00,CLR,,0.00,WeatherDisplay:10.37,2013-06-16 13:52:00,
2013-06-16 09:57:00,68.1,57.1,29.87,South,189,0.0,0.0,68,0.00,CLR,,0.00,WeatherDisplay:10.37,2013-06-16 13:57:00,
2013-06-16 10:02:00,68.9,58.7,29.87,South,189,0.0,2.3,70,0.00,CLR,,0.00,WeatherDisplay:10.37,2013-06-16 14:02:00,
2013-06-16 10:08:00,69.3,57.5,29.87,WSW,256,0.9,3.5,66,0.00,CLR,,0.00,WeatherDisplay:10.37,2013-06-16 14:08:00,
2013-06-16 10:13:00,69.9,58.0,29.87,SSW,209,0.1,2.3,66,0.00,CLR,,0.00,WeatherDisplay:10.37,2013-06-16 14:13:00,
2013-06-16 10:18:00,70.1,55.6,29.86,SSW,195,1.3,5.8,60,0.00,CLR,,0.00,WeatherDisplay:10.37,2013-06-16 14:18:00,
2013-06-16 10:23:00,70.4,54.0,29.86,SSW,205,0.0,0.0,56,0.00,CLR,,0.00,WeatherDisplay:10.37,2013-06-16 14:23:00,
2013-06-16 10:28:00,70.6,54.6,29.86,SW,232,1.6,6.9,57,0.00,CLR,,0.00,WeatherDisplay:10.37,2013-06-16 14:28:00,
2013-06-16 10:34:00,70.9,55.4,29.86,SSW,206,1.3,4.6,58,0.00,CLR,,0.00,WeatherDisplay:10.37,2013-06-16 14:34:00,
2013-06-16 10:39:00,70.9,55.4,29.86,South,171,0.0,0.0,58,0.00,CLR,,0.00,WeatherDisplay:10.37,2013-06-16 14:39:00,
2013-06-16 10:44:00,70.9,55.4,29.85,South,179,0.0,0.0,58,0.00,CLR,,0.00,WeatherDisplay:10.37,2013-06-16 14:44:00,
2013-06-16 10:49:00,71.3,55.3,29.85,SW,236,0.8,4.6,57,0.00,CLR,,0.00,WeatherDisplay:10.37,2013-06-16 14:49:00,
2013-06-16 10:54:00,72.1,56.0,29.84,SW,216,1.9,11.5,57,0.00,CLR,,0.00,WeatherDisplay:10.37,2013-06-16 14:54:00,
2013-06-16 10:59:00,72.7,56.1,29.84,South,174,0.0,1.2,56,0.00,CLR,,0.00,WeatherDisplay:10.37,2013-06-16 14:59:00,
2013-06-16 11:05:00,72.7,55.1,29.84,SSW,200,1.9,5.8,54,0.00,CLR,,0.00,WeatherDisplay:10.37,2013-06-16 15:05:00,
2013-06-16 11:10:00,72.3,53.7,29.84,SSE,147,0.9,5.0,52,0.00,CLR,,0.00,WeatherDisplay:10.37,2013-06-16 15:10:00,
2013-06-16 11:15:00,72.0,54.4,29.83,South,178,0.0,0.0,54,0.00,CLR,,0.00,WeatherDisplay:10.37,2013-06-16 15:15:00,
2013-06-16 11:20:00,72.0,54.4,29.83,South,176,1.8,8.1,54,0.00,CLR,,0.00,WeatherDisplay:10.37,2013-06-16 15:20:00,
2013-06-16 11:25:00,72.3,56.7,29.83,South,182,0.0,0.0,58,0.00,CLR,,0.00,WeatherDisplay:10.37,2013-06-16 15:25:00,
2013-06-16 11:30:00,72.8,56.2,29.83,South,169,0.0,6.9,56,0.00,CLR,,0.00,WeatherDisplay:10.37,2013-06-16 15:30:00,
2013-06-16 11:35:00,73.3,57.1,29.82,SSW,196,0.2,0.0,57,0.00,CLR,,0.00,WeatherDisplay:10.37,2013-06-16 15:35:00,
2013-06-16 11:40:00,73.2,55.6,29.82,South,169,0.0,5.8,54,0.00,CLR,,0.00,WeatherDisplay:10.37,2013-06-16 15:40:00,
2013-06-16 11:46:00,73.2,55.6,29.82,SSW,195,1.0,4.6,54,0.00,CLR,,0.00,WeatherDisplay:10.37,2013-06-16 15:46:00,
2013-06-16 11:51:00,73.0,55.4,29.82,SSW,193,0.0,2.3,54,0.00,CLR,,0.00,WeatherDisplay:10.37,2013-06-16 15:51:00,
2013-06-16 11:56:00,73.2,54.5,29.81,SSW,202,7.0,8.1,52,0.00,CLR,,0.00,WeatherDisplay:10.37,2013-06-16 15:56:00,
2013-06-16 12:01:00,73.2,54.5,29.81,SSW,199,1.3,0.0,52,0.00,CLR,,0.00,WeatherDisplay:10.37,2013-06-16 16:01:00,
2013-06-16 12:06:00,73.3,55.1,29.81,SSW,206,1.7,4.6,53,0.00,CLR,,0.00,WeatherDisplay:10.37,2013-06-16 16:06:00,
2013-06-16 12:11:00,73.2,55.6,29.81,South,179,0.6,3.5,54,0.00,CLR,,0.00,WeatherDisplay:10.37,2013-06-16 16:11:00,
2013-06-16 12:16:00,73.3,56.7,29.81,SW,224,0.0,0.0,56,0.00,CLR,,0.00,WeatherDisplay:10.37,2013-06-16 16:16:00,
2013-06-16 12:22:00,73.5,57.3,29.80,South,185,0.0,0.0,57,0.00,CLR,,0.00,WeatherDisplay:10.37,2013-06-16 16:22:00,
2013-06-16 12:27:00,74.0,57.8,29.80,South,188,0.0,2.0,57,0.00,CLR,,0.00,WeatherDisplay:10.37,2013-06-16 16:27:00,
2013-06-16 12:32:00,74.0,56.3,29.80,SSW,208,0.0,4.6,54,0.00,CLR,,0.00,WeatherDisplay:10.37,2013-06-16 16:32:00,
2013-06-16 12:37:00,74.0,55.8,29.80,SSW,206,2.1,11.5,53,0.00,CLR,,0.00,WeatherDisplay:10.37,2013-06-16 16:37:00,
2013-06-16 12:42:00,74.2,57.0,29.79,SSE,168,0.0,4.6,55,0.00,CLR,,0.00,WeatherDisplay:10.37,2013-06-16 16:42:00,
2013-06-16 12:48:00,74.4,57.2,29.78,SSW,198,0.0,0.0,55,0.00,CLR,,0.00,WeatherDisplay:10.37,2013-06-16 16:48:00,
2013-06-16 12:53:00,74.9,58.6,29.78,South,185,0.0,0.0,57,0.00,CLR,,0.00,WeatherDisplay:10.37,2013-06-16 16:53:00,
2013-06-16 12:58:00,75.1,57.3,29.78,SSW,202,0.1,4.6,54,0.00,CLR,,0.00,WeatherDisplay:10.37,2013-06-16 16:58:00,
2013-06-16 13:03:00,75.6,57.3,29.78,SSW,193,1.2,3.0,53,0.00,CLR,,0.00,WeatherDisplay:10.37,2013-06-16 17:03:00,
2013-06-16 13:09:00,75.8,56.4,29.78,SSW,202,0.2,1.2,51,0.00,CLR,,0.00,WeatherDisplay:10.37,2013-06-16 17:09:00,
2013-06-16 13:14:00,75.8,56.9,29.78,SSW,196,0.5,3.5,52,0.00,CLR,,0.00,WeatherDisplay:10.37,2013-06-16 17:14:00,
2013-06-16 13:19:00,75.6,55.6,29.78,SSW,202,1.3,8.1,50,0.00,CLR,,0.00,WeatherDisplay:10.37,2013-06-16 17:19:00,
2013-06-16 13:24:00,75.3,55.9,29.78,SSW,213,0.0,3.5,51,0.00,CLR,,0.00,WeatherDisplay:10.37,2013-06-16 17:24:00,
2013-06-16 13:29:00,74.9,56.1,29.78,South,175,0.4,3.5,52,0.00,CLR,,0.00,WeatherDisplay:10.37,2013-06-16 17:29:00,
2013-06-16 13:35:00,74.6,55.8,29.77,South,181,3.1,11.5,52,0.00,CLR,,0.00,WeatherDisplay:10.37,2013-06-16 17:35:00,
2013-06-16 13:40:00,74.4,56.2,29.77,South,191,0.9,9.2,53,0.00,CLR,,0.00,WeatherDisplay:10.37,2013-06-16 17:40:00,
2013-06-16 13:45:00,74.6,56.9,29.76,South,171,0.0,0.0,54,0.00,CLR,,0.00,WeatherDisplay:10.37,2013-06-16 17:45:00,
2013-06-16 13:50:00,74.9,59.1,29.76,South,191,0.0,0.0,58,0.00,CLR,,0.00,WeatherDisplay:10.37,2013-06-16 17:50:00,
2013-06-16 13:55:00,75.1,58.3,29.75,South,171,0.0,4.6,56,0.00,CLR,,0.00,WeatherDisplay:10.37,2013-06-16 17:55:00,
2013-06-16 14:00:00,75.1,57.3,29.75,South,181,4.5,6.9,54,0.00,CLR,,0.00,WeatherDisplay:10.37,2013-06-16 18:00:00,
2013-06-16 14:06:00,75.1,56.8,29.74,SW,219,1.3,5.8,53,0.00,CLR,,0.00,WeatherDisplay:10.37,2013-06-16 18:06:00,
2013-06-16 14:11:00,75.1,57.8,29.74,SW,217,1.8,6.0,55,0.00,CLR,,0.00,WeatherDisplay:10.37,2013-06-16 18:11:00,
2013-06-16 14:16:00,75.3,57.0,29.73,West,261,5.7,15.0,53,0.00,CLR,,0.00,WeatherDisplay:10.37,2013-06-16 18:16:00,
2013-06-16 14:21:00,75.4,57.6,29.73,SSW,195,0.4,11.5,54,0.00,CLR,,0.00,WeatherDisplay:10.37,2013-06-16 18:21:00,
2013-06-16 14:26:00,75.8,58.5,29.73,South,182,0.9,11.5,55,0.00,CLR,,0.00,WeatherDisplay:10.37,2013-06-16 18:26:00,
2013-06-16 14:31:00,76.3,59.4,29.73,SSW,198,0.4,3.5,56,0.00,CLR,,0.00,WeatherDisplay:10.37,2013-06-16 18:31:00,
2013-06-16 14:36:00,76.3,60.4,29.73,South,186,6.2,11.5,58,0.00,CLR,,0.00,WeatherDisplay:10.37,2013-06-16 18:36:00,
2013-06-16 14:41:00,76.3,58.9,29.74,SSW,192,10.5,10.5,55,0.00,CLR,,0.00,WeatherDisplay:10.37,2013-06-16 18:41:00,
2013-06-16 14:47:00,76.3,59.4,29.73,SSE,155,6.0,17.3,56,0.00,CLR,,0.00,WeatherDisplay:10.37,2013-06-16 18:47:00,
2013-06-16 14:52:00,76.3,58.4,29.74,South,171,8.8,19.6,54,0.00,CLR,,0.00,WeatherDisplay:10.37,2013-06-16 18:52:00,
2013-06-16 14:57:00,76.5,59.1,29.73,South,176,5.9,11.5,55,0.00,CLR,,0.00,WeatherDisplay:10.37,2013-06-16 18:57:00,
2013-06-16 15:02:00,76.7,60.3,29.73,SSW,195,1.2,4.6,57,0.00,CLR,,0.00,WeatherDisplay:10.37,2013-06-16 19:02:00,
2013-06-16 15:07:00,76.8,59.9,29.73,NW,308,7.9,11.5,56,0.00,CLR,,0.00,WeatherDisplay:10.37,2013-06-16 19:07:00,
2013-06-16 15:12:00,76.8,60.9,29.73,South,185,4.8,11.5,58,0.00,CLR,,0.00,WeatherDisplay:10.37,2013-06-16 19:12:00,
2013-06-16 15:17:00,77.0,61.1,29.73,SW,223,3.0,7.0,58,0.00,CLR,,0.00,WeatherDisplay:10.37,2013-06-16 19:17:00,
2013-06-16 15:22:00,77.4,60.5,29.73,South,182,4.3,17.3,56,0.00,CLR,,0.00,WeatherDisplay:10.37,2013-06-16 19:22:00,
2013-06-16 15:27:00,77.4,60.5,29.73,South,191,4.3,6.9,56,0.00,CLR,,0.00,WeatherDisplay:10.37,2013-06-16 19:27:00,
2013-06-16 15:32:00,77.4,61.0,29.73,WSW,243,1.1,12.7,57,0.00,CLR,,0.00,WeatherDisplay:10.37,2013-06-16 19:32:00,
2013-06-16 15:37:00,77.4,60.5,29.73,South,191,3.1,12.7,56,0.00,CLR,,0.00,WeatherDisplay:10.37,2013-06-16 19:37:00,
2013-06-16 15:43:00,77.4,61.0,29.73,WNW,301,1.2,8.1,57,0.00,CLR,,0.00,WeatherDisplay:10.37,2013-06-16 19:43:00,
2013-06-16 15:48:00,77.4,61.0,29.73,WSW,257,1.6,6.0,57,0.00,CLR,,0.00,WeatherDisplay:10.37,2013-06-16 19:48:00,
2013-06-16 15:53:00,77.4,61.5,29.73,West,275,0.0,0.0,58,0.00,CLR,,0.00,WeatherDisplay:10.37,2013-06-16 19:53:00,
2013-06-16 15:58:00,77.2,61.3,29.73,SW,222,2.6,5.8,58,0.00,CLR,,0.00,WeatherDisplay:10.37,2013-06-16 19:58:00,
2013-06-16 16:03:00,77.4,61.5,29.73,WSW,243,3.8,5.8,58,0.00,CLR,,0.00,WeatherDisplay:10.37,2013-06-16 20:03:00,
2013-06-16 16:08:00,77.4,61.9,29.73,WSW,237,0.9,1.2,59,0.00,CLR,,0.00,WeatherDisplay:10.37,2013-06-16 20:08:00,
2013-06-16 16:13:00,77.7,61.7,29.73,SSW,209,1.9,10.4,58,0.00,CLR,,0.00,WeatherDisplay:10.37,2013-06-16 20:13:00,
2013-06-16 16:19:00,77.9,61.4,29.73,WNW,295,0.7,3.5,57,0.00,CLR,,0.00,WeatherDisplay:10.37,2013-06-16 20:19:00,
2013-06-16 16:24:00,77.9,61.4,29.73,SW,232,1.9,6.9,57,0.00,CLR,,0.00,WeatherDisplay:10.37,2013-06-16 20:24:00,
2013-06-16 16:29:00,77.9,61.4,29.73,WSW,257,4.2,11.5,57,0.00,CLR,,0.00,WeatherDisplay:10.37,2013-06-16 20:29:00,
2013-06-16 16:34:00,77.6,61.7,29.73,WSW,240,2.7,9.0,58,0.00,CLR,,0.00,WeatherDisplay:10.37,2013-06-16 20:34:00,
2013-06-16 16:40:00,77.2,61.3,29.73,WSW,258,0.8,5.8,58,0.00,CLR,,0.00,WeatherDisplay:10.37,2013-06-16 20:40:00,
2013-06-16 16:45:00,76.8,61.4,29.73,West,274,0.1,1.2,59,0.00,CLR,,0.00,WeatherDisplay:10.37,2013-06-16 20:45:00,
2013-06-16 16:50:00,76.7,61.8,29.74,South,181,1.8,4.6,60,0.00,CLR,,0.00,WeatherDisplay:10.37,2013-06-16 20:50:00,
2013-06-16 16:55:00,76.5,61.1,29.74,South,186,4.1,17.3,59,0.00,CLR,,0.00,WeatherDisplay:10.37,2013-06-16 20:55:00,
2013-06-16 17:00:00,76.3,60.9,29.74,WSW,247,6.3,19.6,59,0.00,CLR,,0.00,WeatherDisplay:10.37,2013-06-16 21:00:00,
2013-06-16 17:05:00,76.1,61.7,29.74,WSW,250,2.2,10.4,61,0.00,CLR,,0.00,WeatherDisplay:10.37,2013-06-16 21:05:00,
2013-06-16 17:10:00,76.0,62.0,29.74,WNW,285,0.7,6.9,62,0.00,CLR,,0.00,WeatherDisplay:10.37,2013-06-16 21:10:00,
2013-06-16 17:15:00,76.0,62.0,29.74,NW,311,0.3,5.8,62,0.00,CLR,,0.00,WeatherDisplay:10.37,2013-06-16 21:15:00,
2013-06-16 17:21:00,76.0,62.0,29.74,WSW,256,3.1,7.0,62,0.00,CLR,,0.00,WeatherDisplay:10.37,2013-06-16 21:21:00,
2013-06-16 17:26:00,76.0,62.0,29.74,WNW,285,0.6,9.2,62,0.00,CLR,,0.00,WeatherDisplay:10.37,2013-06-16 21:26:00,
2013-06-16 17:31:00,76.0,62.5,29.74,WSW,239,2.2,8.1,63,0.00,CLR,,0.00,WeatherDisplay:10.37,2013-06-16 21:31:00,
2013-06-16 17:36:00,76.0,62.5,29.74,WNW,291,2.7,10.4,63,0.00,CLR,,0.00,WeatherDisplay:10.37,2013-06-16 21:36:00,
2013-06-16 17:41:00,75.6,63.0,29.74,West,280,2.1,2.1,65,0.00,CLR,,0.00,WeatherDisplay:10.37,2013-06-16 21:41:00,
2013-06-16 17:46:00,75.3,62.7,29.74,West,267,4.6,6.9,65,0.00,CLR,,0.00,WeatherDisplay:10.37,2013-06-16 21:46:00,
2013-06-16 17:51:00,75.4,62.8,29.73,WSW,246,4.0,12.7,65,0.00,CLR,,0.00,WeatherDisplay:10.37,2013-06-16 21:51:00,
2013-06-16 17:56:00,75.8,63.6,29.73,WNW,294,4.0,17.3,66,0.00,CLR,,0.00,WeatherDisplay:10.37,2013-06-16 21:56:00,
2013-06-16 18:02:00,76.0,63.4,29.73,South,189,2.1,6.9,65,0.00,CLR,,0.00,WeatherDisplay:10.37,2013-06-16 22:02:00,
2013-06-16 18:07:00,75.8,63.2,29.73,West,274,2.5,11.5,65,0.00,CLR,,0.00,WeatherDisplay:10.37,2013-06-16 22:07:00,
2013-06-16 18:12:00,75.4,63.7,29.73,SSW,213,0.8,3.5,67,0.00,CLR,,0.00,WeatherDisplay:10.37,2013-06-16 22:12:00,
2013-06-16 18:17:00,75.1,63.4,29.73,SW,227,1.7,8.1,67,0.00,CLR,,0.00,WeatherDisplay:10.37,2013-06-16 22:17:00,
2013-06-16 18:22:00,75.1,63.4,29.73,West,275,3.1,10.4,67,0.00,CLR,,0.00,WeatherDisplay:10.37,2013-06-16 22:22:00,
2013-06-16 18:27:00,75.3,63.6,29.73,WSW,250,3.4,8.1,67,0.00,CLR,,0.00,WeatherDisplay:10.37,2013-06-16 22:27:00,
2013-06-16 18:32:00,75.4,64.1,29.73,WNW,282,2.4,10.4,68,0.00,CLR,,0.00,WeatherDisplay:10.37,2013-06-16 22:32:00,
2013-06-16 18:37:00,75.3,63.6,29.73,West,272,3.5,11.5,67,0.00,CLR,,0.00,WeatherDisplay:10.37,2013-06-16 22:37:00,
2013-06-16 18:43:00,75.3,63.6,29.73,WSW,243,2.4,11.5,67,0.00,CLR,,0.00,WeatherDisplay:10.37,2013-06-16 22:43:00,
2013-06-16 18:48:00,75.4,63.7,29.74,West,260,2.2,8.1,67,0.00,CLR,,0.00,WeatherDisplay:10.37,2013-06-16 22:48:00,
2013-06-16 18:53:00,75.3,64.0,29.74,WSW,237,2.7,6.0,68,0.00,CLR,,0.00,WeatherDisplay:10.37,2013-06-16 22:53:00,
2013-06-16 18:58:00,75.1,63.8,29.73,SW,227,0.0,6.0,68,0.00,CLR,,0.00,WeatherDisplay:10.37,2013-06-16 22:58:00,
2013-06-16 19:03:00,74.9,64.0,29.73,SW,219,1.2,11.5,69,0.00,CLR,,0.00,WeatherDisplay:10.37,2013-06-16 23:03:00,
2013-06-16 19:09:00,74.7,63.9,29.74,WNW,291,1.2,11.5,69,0.00,CLR,,0.00,WeatherDisplay:10.37,2013-06-16 23:09:00,
2013-06-16 19:14:00,74.9,63.6,29.74,WSW,250,0.8,8.1,68,0.00,CLR,,0.00,WeatherDisplay:10.37,2013-06-16 23:14:00,
2013-06-16 19:19:00,74.7,63.4,29.74,SSW,210,1.9,11.5,68,0.00,CLR,,0.00,WeatherDisplay:10.37,2013-06-16 23:19:00,
2013-06-16 19:24:00,74.7,63.4,29.74,West,268,0.5,4.0,68,0.00,CLR,,0.00,WeatherDisplay:10.37,2013-06-16 23:24:00,
2013-06-16 19:29:00,74.7,63.4,29.74,SSW,206,1.1,6.9,68,0.00,CLR,,0.00,WeatherDisplay:10.37,2013-06-16 23:29:00,
2013-06-16 19:34:00,74.4,63.1,29.74,SSW,195,3.0,8.1,68,0.00,CLR,,0.00,WeatherDisplay:10.37,2013-06-16 23:34:00,
2013-06-16 19:39:00,74.4,63.6,29.74,West,267,1.3,6.9,69,0.00,CLR,,0.00,WeatherDisplay:10.37,2013-06-16 23:39:00,
2013-06-16 19:44:00,74.2,63.4,29.74,West,272,0.8,10.4,69,0.00,CLR,,0.00,WeatherDisplay:10.37,2013-06-16 23:44:00,
2013-06-16 19:49:00,74.0,63.2,29.74,WSW,247,1.4,6.9,69,0.00,CLR,,0.00,WeatherDisplay:10.37,2013-06-16 23:49:00,
2013-06-16 19:55:00,73.9,63.5,29.74,WNW,291,1.3,5.8,70,0.00,CLR,,0.00,WeatherDisplay:10.37,2013-06-16 23:55:00,
2013-06-16 20:00:00,73.5,63.1,29.74,SW,227,1.4,6.9,70,0.00,CLR,,0.00,WeatherDisplay:10.37,2013-06-17 00:00:00,
2013-06-16 20:05:00,73.3,63.3,29.74,West,275,2.7,11.5,71,0.00,CLR,,0.00,WeatherDisplay:10.37,2013-06-17 00:05:00,
2013-06-16 20:10:00,73.3,63.3,29.74,SW,223,2.6,11.5,71,0.00,CLR,,0.00,WeatherDisplay:10.37,2013-06-17 00:10:00,
2013-06-16 20:15:00,73.2,63.6,29.74,WSW,258,0.6,8.1,72,0.00,CLR,,0.00,WeatherDisplay:10.37,2013-06-17 00:15:00,
2013-06-16 20:20:00,73.0,63.4,29.74,West,264,0.2,3.5,72,0.00,CLR,,0.00,WeatherDisplay:10.37,2013-06-17 00:20:00,
2013-06-16 20:25:00,72.8,63.2,29.74,West,272,1.3,8.1,72,0.00,CLR,,0.00,WeatherDisplay:10.37,2013-06-17 00:25:00,
2013-06-16 20:31:00,72.8,63.2,29.75,WNW,302,2.1,6.0,72,0.00,CLR,,0.00,WeatherDisplay:10.37,2013-06-17 00:31:00,
2013-06-16 20:36:00,72.8,63.2,29.75,SW,229,0.5,5.8,72,0.00,CLR,,0.00,WeatherDisplay:10.37,2013-06-17 00:36:00,
2013-06-16 20:41:00,72.8,63.2,29.75,SW,220,1.2,8.1,72,0.00,CLR,,0.00,WeatherDisplay:10.37,2013-06-17 00:41:00,
2013-06-16 20:46:00,72.7,63.1,29.75,SSW,203,0.3,3.5,72,0.00,CLR,,0.00,WeatherDisplay:10.37,2013-06-17 00:46:00,
2013-06-16 20:51:00,72.5,63.0,29.75,WSW,244,0.4,6.9,72,0.00,CLR,,0.00,WeatherDisplay:10.37,2013-06-17 00:51:00,
2013-06-16 20:56:00,72.5,63.4,29.76,WSW,256,0.0,0.0,73,0.00,CLR,,0.00,WeatherDisplay:10.37,2013-06-17 00:56:00,
2013-06-16 21:02:00,72.3,63.2,29.76,SSW,196,0.6,3.5,73,0.00,CLR,,0.00,WeatherDisplay:10.37,2013-06-17 01:02:00,
2013-06-16 21:07:00,72.1,63.4,29.76,SW,223,1.2,5.8,74,0.00,CLR,,0.00,WeatherDisplay:10.37,2013-06-17 01:07:00,
2013-06-16 21:12:00,72.0,63.6,29.76,South,191,0.0,0.0,75,0.00,CLR,,0.00,WeatherDisplay:10.37,2013-06-17 01:12:00,
2013-06-16 21:17:00,71.8,63.4,29.76,SSW,196,0.0,0.0,75,0.00,CLR,,0.00,WeatherDisplay:10.37,2013-06-17 01:17:00,
2013-06-16 21:22:00,71.6,63.6,29.77,SSW,206,0.0,0.0,76,0.00,CLR,,0.00,WeatherDisplay:10.37,2013-06-17 01:22:00,
2013-06-16 21:27:00,71.5,63.9,29.77,SSW,205,0.0,0.0,77,0.00,CLR,,0.00,WeatherDisplay:10.37,2013-06-17 01:27:00,
2013-06-16 21:33:00,71.3,63.7,29.77,SSW,206,0.0,0.0,77,0.00,CLR,,0.00,WeatherDisplay:10.37,2013-06-17 01:33:00,
2013-06-16 21:38:00,71.1,63.5,29.77,SW,215,0.0,0.0,77,0.00,CLR,,0.00,WeatherDisplay:10.37,2013-06-17 01:38:00,
2013-06-16 21:43:00,70.9,63.7,29.77,SW,216,0.0,0.0,78,0.00,CLR,,0.00,WeatherDisplay:10.37,2013-06-17 01:43:00,
2013-06-16 21:48:00,70.9,63.7,29.77,SW,220,2.3,5.8,78,0.00,CLR,,0.00,WeatherDisplay:10.37,2013-06-17 01:48:00,
2013-06-16 21:53:00,70.8,63.6,29.78,SW,229,0.0,0.0,78,0.00,CLR,,0.00,WeatherDisplay:10.37,2013-06-17 01:53:00,
2013-06-16 21:58:00,70.6,63.8,29.78,WSW,244,0.0,0.0,79,0.00,CLR,,0.00,WeatherDisplay:10.37,2013-06-17 01:58:00,
2013-06-16 22:03:00,70.4,63.9,29.78,WSW,237,0.0,0.0,80,0.00,CLR,,0.00,WeatherDisplay:10.37,2013-06-17 02:03:00,
2013-06-16 22:09:00,70.3,63.8,29.78,West,267,0.0,0.0,80,0.00,CLR,,0.00,WeatherDisplay:10.37,2013-06-17 02:09:00,
2013-06-16 22:14:00,70.1,63.6,29.78,SW,234,0.0,0.0,80,0.00,CLR,,0.00,WeatherDisplay:10.37,2013-06-17 02:14:00,
2013-06-16 22:19:00,69.9,63.8,29.78,SW,222,0.0,0.0,81,0.00,CLR,,0.00,WeatherDisplay:10.37,2013-06-17 02:19:00,
2013-06-16 22:24:00,69.8,63.7,29.79,SW,219,0.0,0.0,81,0.00,CLR,,0.00,WeatherDisplay:10.37,2013-06-17 02:24:00,
2013-06-16 22:29:00,69.6,63.5,29.79,SW,219,0.0,0.0,81,0.00,CLR,,0.00,WeatherDisplay:10.37,2013-06-17 02:29:00,
2013-06-16 22:35:00,69.4,63.7,29.79,SW,219,0.0,0.0,82,0.00,CLR,,0.00,WeatherDisplay:10.37,2013-06-17 02:35:00,
2013-06-16 22:40:00,69.3,63.6,29.79,SW,222,0.0,0.0,82,0.00,CLR,,0.00,WeatherDisplay:10.37,2013-06-17 02:40:00,
2013-06-16 22:45:00,69.1,63.4,29.79,SW,215,0.0,0.0,82,0.00,CLR,,0.00,WeatherDisplay:10.37,2013-06-17 02:45:00,
2013-06-16 22:50:00,68.9,63.5,29.79,SW,230,0.0,0.0,83,0.00,CLR,,0.00,WeatherDisplay:10.37,2013-06-17 02:50:00,
2013-06-16 22:56:00,68.9,63.5,29.79,West,268,0.0,0.0,83,0.00,CLR,,0.00,WeatherDisplay:10.37,2013-06-17 02:56:00,
2013-06-16 23:01:00,68.9,63.5,29.79,West,267,0.0,0.0,83,0.00,CLR,,0.00,WeatherDisplay:10.37,2013-06-17 03:01:00,
2013-06-16 23:06:00,68.8,63.4,29.79,SSW,196,0.0,0.0,83,0.00,CLR,,0.00,WeatherDisplay:10.37,2013-06-17 03:06:00,
2013-06-16 23:11:00,68.9,63.2,29.79,SSW,198,0.0,0.0,82,0.00,CLR,,0.00,WeatherDisplay:10.37,2013-06-17 03:11:00,
2013-06-16 23:17:00,68.9,63.2,29.79,SSW,206,0.0,0.0,82,0.00,CLR,,0.00,WeatherDisplay:10.37,2013-06-17 03:17:00,
2013-06-16 23:22:00,68.8,63.1,29.79,SW,216,0.3,1.2,82,0.00,CLR,,0.00,WeatherDisplay:10.37,2013-06-17 03:22:00,
2013-06-16 23:27:00,68.9,63.2,29.79,SW,216,0.0,0.0,82,0.00,CLR,,0.00,WeatherDisplay:10.37,2013-06-17 03:27:00,
2013-06-16 23:32:00,68.9,62.8,29.79,SW,216,0.0,0.0,81,0.00,CLR,,0.00,WeatherDisplay:10.37,2013-06-17 03:32:00,
2013-06-16 23:37:00,68.9,62.8,29.79,SW,216,0.0,0.0,81,0.00,CLR,,0.00,WeatherDisplay:10.37,2013-06-17 03:37:00,
2013-06-16 23:42:00,68.8,62.7,29.79,SW,216,0.0,0.0,81,0.00,CLR,,0.00,WeatherDisplay:10.37,2013-06-17 03:42:00,
2013-06-16 23:47:00,68.6,62.9,29.79,SW,216,0.0,0.0,82,0.00,CLR,,0.00,WeatherDisplay:10.37,2013-06-17 03:47:00,
2013-06-16 23:53:00,68.4,62.7,29.79,SW,216,0.0,0.0,82,0.00,CLR,,0.00,WeatherDisplay:10.37,2013-06-17 03:53:00,
2013-06-16 23:58:00,68.3,62.9,29.79,SW,216,0.0,0.0,83,0.00,CLR,,0.00,WeatherDisplay:10.37,2013-06-17 03:58:00,